[[{"header":{"parameterUnit":"m.s-1","parameterCategory":1,"la1":30.2991,"la2":30.254,"lo1":-89.0895,"lo2":-89.0444,"dy":0.0017,"dx":0.0017,"nx":28,"ny":28,"refTime":"2024-03-15T09:00:00:Z","depth":0,"parameterNumber":2,"parameterNumberName":"U-component_of_WINDS"},"data":[0,0,0,0,0,0,0,0,0,0,0,0,0,0,0,0,0,0,0,0,0,0,0,0,0,0,0,0,0,0,0,0,0,0,0,0,0,0,0,0,0,0,0,0,0,0,0,0,0,0,0,0,0,0,0,0,0,0,-2.3915,-2.3916,0,-2.398,-2.3981,-2.3981,-2.3977,-2.3976,-2.3975,-2.3974,-2.4042,-2.4045,-2.4048,0,0,0,0,0,0,0,0,0,0,0,0,0,-2.3788,-2.379,-2.3915,-2.3916,-2.3916,-2.398,-2.3981,-2.3982,-2.3977,-2.3976,-2.3975,-2.3974,-2.4041,-2.4045,-2.4048,0,0,0,0,0,0,0,0,0,0,0,0,0,-2.3847,-2.3791,-2.3915,-2.3922,-2.3923,-2.398,-2.3981,-2.3982,-2.3977,-2.3976,-2.3974,-2.3973,-2.404,-2.4044,-2.4048,-2.4103,0,0,-2.4061,-2.4062,0,0,0,0,0,0,0,0,-2.3844,-2.3852,-2.392,-2.3921,-2.3923,-2.3969,-2.3961,-2.4022,-2.3978,-2.3957,-2.3974,-2.3972,-2.4019,-2.4025,-2.404,-2.4106,-2.4109,-2.4061,-2.4064,-2.4065,-2.4066,0,0,0,0,0,0,0,-2.384,-2.3849,-2.3941,-2.3921,-2.3923,-2.3922,-2.3929,-2.3973,-2.3995,-2.3958,-2.3958,-2.3966,-2.402,-2.4036,-2.4042,-2.411,-2.4061,-2.4065,-2.4067,-2.4069,-2.4223,-2.4225,0,0,0,0,0,0,-2.3834,-2.3846,-2.3939,-2.3943,-2.3879,-2.3926,-2.3933,-2.3956,-2.3995,-2.3999,-2.3967,-2.3965,-2.403,-2.4037,-2.4044,-2.411,-2.4065,-2.4069,-2.4071,-2.4221,-2.4223,-2.4225,0,0,0,0,0,0,-2.3831,-2.3842,-2.3936,-2.3894,-2.3906,-2.3929,-2.3954,-2.3958,-2.3974,-2.4001,-2.4006,-2.398,-2.4029,-2.4038,-2.4088,-2.4112,-2.4071,-2.4075,-2.422,-2.4222,-2.4224,-2.4242,0,0,0,0,0,0,-2.3827,-2.3841,-2.3862,-2.3895,-2.3908,-2.3978,-2.3956,-2.396,-2.3981,-2.398,-2.4014,-2.4019,-2.4029,-2.4082,-2.4092,-2.4117,-2.4078,-2.4217,-2.4221,-2.4224,-2.4239,-2.4245,-2.4249,0,0,0,0,0,-2.3823,-2.3864,-2.3863,-2.3874,-2.3934,-2.3979,-2.3987,-2.3997,-2.3983,-2.4004,-2.4022,-2.4018,-2.4108,-2.4087,-2.4098,-2.4125,-2.4216,-2.422,-2.4223,-2.4237,-2.4244,-2.4249,0,0,0,0,0,0,-2.3834,-2.3869,-2.3867,-2.392,-2.3947,-2.3979,-2.4005,-2.4004,-2.4036,-2.4033,-2.4045,-2.4053,-2.4102,-2.4119,-2.4095,-2.418,-2.416,-2.4166,-2.4167,-2.4173,-2.4178,-2.4173,-2.4081,0,0,0,0,0,-2.3842,-2.3876,-2.3905,-2.3949,-2.3962,-2.3982,-2.4002,-2.4007,-2.4035,-2.4047,-2.4068,-2.4096,-2.413,-2.4153,-2.4187,-2.4242,-2.425,-2.4266,-2.4271,-2.4275,-2.428,-2.431,-2.4318,-2.4237,-2.4237,-2.4237,0,0,-2.3861,-2.3884,-2.3904,-2.3952,-2.3973,-2.4007,-2.3991,-2.4028,-2.4054,-2.4053,-2.41,-2.4117,-2.4149,-2.4202,-2.4226,-2.4217,-2.4304,-2.428,-2.4283,-2.4286,-2.4315,-2.4323,-2.4329,-2.424,-2.424,-2.4239,0,0,-2.3911,-2.3932,-2.3971,-2.3992,-2.4025,-2.4037,-2.4047,-2.4079,-2.4089,-2.4137,-2.4137,-2.4168,-2.4228,-2.4251,-2.427,-2.433,-2.4327,-2.4341,-2.4366,-2.4396,-2.4402,-2.4408,-2.4428,-2.4436,-2.4345,-2.4346,-2.4346,0,-2.3929,-2.3981,-2.3991,-2.4028,-2.4049,-2.4049,-2.4089,-2.411,-2.4151,-2.4166,-2.4156,-2.423,-2.4252,-2.431,-2.4324,-2.434,-2.4351,-2.4336,-2.44,-2.4406,-2.4411,-2.4431,-2.4439,-2.4347,-2.4347,-2.4347,-2.4346,0,-2.4001,-2.4037,-2.4065,-2.4104,-2.4129,-2.4167,-2.4184,-2.4207,-2.4211,-2.4225,-2.4274,-2.43,-2.4339,-2.4353,-2.4358,-2.4412,-2.4405,-2.4398,-2.4378,-2.442,-2.4439,-2.4447,-2.4349,-2.4348,-2.4348,-2.4348,0,0,-2.4059,-2.4104,-2.4114,-2.4132,-2.4168,-2.4196,-2.4235,-2.4272,-2.4292,-2.4321,-2.4354,-2.4405,-2.4398,-2.442,-2.4427,-2.4453,-2.4498,-2.4442,-2.4443,-2.4451,-2.4559,-2.4563,-2.4572,-2.4497,-2.4499,-2.45,-2.4555,0,-2.4112,-2.418,-2.419,-2.425,-2.4283,-2.4284,-2.4318,-2.4344,-2.4359,-2.4389,-2.4406,-2.4441,-2.443,-2.4443,-2.4469,-2.4487,-2.4519,-2.4483,-2.4527,-2.4529,-2.4518,-2.4582,-2.4587,-2.4638,-2.4563,-2.4564,-2.4565,0,-2.4183,-2.4213,-2.4276,-2.4307,-2.4322,-2.4352,-2.4387,-2.4416,-2.4446,-2.4455,-2.4479,-2.4484,-2.4524,-2.4504,-2.456,-2.4535,-2.4555,-2.4566,-2.4569,-2.4572,-2.4548,-2.4586,-2.4655,-2.4662,-2.4577,-2.4576,-2.4575,0,-2.4217,-2.4274,-2.4319,-2.4335,-2.4372,-2.4393,-2.441,-2.4439,-2.4461,-2.4492,-2.4506,-2.4542,-2.4561,-2.4589,-2.4603,-2.4587,-2.4658,-2.4639,-2.4666,-2.4666,-2.468,-2.4679,-2.4752,-2.4694,-2.4694,-2.4694,-2.4694,0,-2.4275,-2.4313,-2.4335,-2.4362,-2.4405,-2.4418,-2.446,-2.4477,-2.4502,-2.4533,-2.4537,-2.4566,-2.4583,-2.4615,-2.4627,-2.4671,-2.468,-2.4688,-2.4691,-2.4687,-2.4686,-2.4699,-2.4695,-2.4696,-2.4696,-2.4695,-2.4695,0,-2.432,-2.4336,-2.4385,-2.4417,-2.4426,-2.4456,-2.4484,-2.4511,-2.4525,-2.4565,-2.4575,-2.4598,-2.4635,-2.4652,-2.4699,-2.4707,-2.4757,-2.4758,-2.4747,-2.4748,-2.4773,-2.477,-2.4856,-2.4868,-2.4804,-2.4804,-2.4805,0,-2.4355,-2.4384,-2.4419,-2.444,-2.4457,-2.4491,-2.4513,-2.4527,-2.455,-2.4586,-2.4609,-2.4646,-2.4677,-2.4738,-2.4759,-2.4795,-2.4795,-2.4823,-2.4801,-2.4796,-2.4795,-2.4792,-2.4795,-2.4827,-2.4827,-2.4828,-2.4828,0,-2.4415,-2.4421,-2.4453,-2.4487,-2.4513,-2.4541,-2.4569,-2.4586,-2.4604,-2.463,-2.4668,-2.4692,-2.4739,-2.4777,-2.4814,-2.4832,-2.4833,-2.4835,-2.4843,-2.4839,-2.4831,-2.4835,-2.4757,-2.4833,-2.4833,-2.4832,-2.4832,-2.4832,-2.4455,-2.4481,-2.451,-2.4545,-2.4567,-2.4592,-2.4619,-2.4637,-2.4669,-2.4708,-2.4715,-2.4755,-2.4785,-2.4835,-2.4855,-2.4887,-2.488,-2.4892,-2.4895,-2.4897,-2.4898,-2.4827,-2.4894,-2.4894,-2.4894,-2.4894,-2.4894,0,-2.4514,-2.4533,-2.4565,-2.4603,-2.463,-2.4629,-2.4659,-2.4682,-2.4718,-2.4745,-2.4775,-2.482,-2.4856,-2.488,-2.4917,-2.4939,-2.494,-2.4948,-2.4946,-2.495,-2.4903,-2.4892,-2.4946,-2.4946,-2.4946,-2.4946,-2.4946,-2.4946,-2.4548,-2.4592,-2.4602,-2.4657,-2.4675,-2.4714,-2.4732,-2.4755,-2.4777,-2.4826,-2.4856,-2.4871,-2.4898,-2.4937,-2.497,-2.4977,-2.499,-2.4998,-2.5003,-2.4959,-2.4953,-2.4948,-2.4937,-2.5001,-2.5001,-2.5048,-2.5048,-2.5049]},{"header":{"parameterUnit":"m.s-1","parameterCategory":1,"la1":30.2991,"la2":30.254,"lo1":-89.0895,"lo2":-89.0444,"dy":0.0017,"dx":0.0017,"nx":28,"ny":28,"refTime":"2024-03-15T09:00:00:Z","depth":0,"parameterNumber":3,"parameterNumberName":"V-component_of_WINDS"},"data":[0,0,0,0,0,0,0,0,0,0,0,0,0,0,0,0,0,0,0,0,0,0,0,0,0,0,0,0,0,0,0,0,0,0,0,0,0,0,0,0,0,0,0,0,0,0,0,0,0,0,0,0,0,0,0,0,0,0,2.8829,2.883,0,2.8888,2.8889,2.8889,2.8895,2.8894,2.8894,2.8893,2.8954,2.8957,2.8959,0,0,0,0,0,0,0,0,0,0,0,0,0,2.8724,2.8725,2.8829,2.883,2.883,2.8888,2.8889,2.889,2.8895,2.8894,2.8893,2.8893,2.8954,2.8956,2.8959,0,0,0,0,0,0,0,0,0,0,0,0,0,2.8775,2.8726,2.8829,2.884,2.8842,2.8888,2.8889,2.889,2.8895,2.8894,2.8893,2.8892,2.8953,2.8956,2.8959,2.8999,0,0,2.897,2.8971,0,0,0,0,0,0,0,0,2.8772,2.8778,2.8838,2.8839,2.8841,2.8883,2.8874,2.8926,2.8895,2.8875,2.8893,2.8892,2.8932,2.8937,2.895,2.9001,2.9004,2.897,2.8972,2.8973,2.8974,0,0,0,0,0,0,0,2.8768,2.8776,2.8852,2.8838,2.8841,2.8843,2.8849,2.8884,2.8908,2.8877,2.8877,2.8884,2.8932,2.8947,2.8951,2.9005,2.897,2.8973,2.8975,2.8976,2.9095,2.9096,0,0,0,0,0,0,2.8762,2.8773,2.885,2.8854,2.8803,2.8846,2.8853,2.8871,2.8907,2.8912,2.8885,2.8884,2.8941,2.8947,2.8953,2.9004,2.8973,2.8976,2.8978,2.9094,2.9096,2.9097,0,0,0,0,0,0,2.876,2.8769,2.8848,2.8814,2.8824,2.8848,2.8869,2.8872,2.8886,2.8914,2.8918,2.8895,2.8941,2.8949,2.8988,2.9006,2.8978,2.8981,2.9093,2.9095,2.9096,2.9104,0,0,0,0,0,0,2.8757,2.8768,2.8783,2.8814,2.8826,2.8881,2.887,2.8874,2.8892,2.8892,2.8924,2.8929,2.8941,2.8983,2.8991,2.901,2.8983,2.9091,2.9094,2.9096,2.9103,2.9106,2.9109,0,0,0,0,0,2.8753,2.8782,2.8783,2.8793,2.8844,2.8882,2.8889,2.8902,2.8893,2.8909,2.8927,2.8928,2.9003,2.8987,2.8996,2.9017,2.909,2.9093,2.9095,2.9101,2.9106,2.9109,0,0,0,0,0,0,2.8752,2.8786,2.8788,2.8828,2.8852,2.8883,2.8902,2.8906,2.8933,2.8931,2.8947,2.8954,2.8993,2.9009,2.8991,2.9058,2.9046,2.905,2.9047,2.9051,2.9054,2.9051,2.8986,0,0,0,0,0,2.8756,2.8783,2.8812,2.8845,2.8857,2.8878,2.8894,2.8903,2.8928,2.8939,2.8959,2.8984,2.9014,2.9033,2.9062,2.9105,2.9113,2.9123,2.9127,2.9129,2.9134,2.916,2.9166,2.9106,2.9106,2.9105,0,0,2.8766,2.8788,2.8804,2.8845,2.8865,2.8894,2.8886,2.8916,2.8939,2.8943,2.8982,2.8998,2.9028,2.907,2.9089,2.9084,2.9152,2.9133,2.9135,2.9138,2.9164,2.9169,2.9175,2.9107,2.9107,2.9107,0,0,2.8798,2.8816,2.8847,2.8867,2.8897,2.8911,2.8919,2.8949,2.8961,2.9,2.9005,2.9032,2.9081,2.9103,2.9121,2.9164,2.9167,2.9173,2.9191,2.9216,2.9221,2.9226,2.9244,2.9249,2.9176,2.9176,2.9176,0,2.8806,2.8849,2.8862,2.8893,2.8912,2.8918,2.895,2.8969,2.9007,2.9021,2.9014,2.9079,2.9098,2.9147,2.9158,2.9171,2.9182,2.917,2.9219,2.9224,2.9228,2.9246,2.9252,2.9177,2.9177,2.9177,2.9177,0,2.8859,2.8889,2.891,2.8948,2.8969,2.9,2.9019,2.9039,2.9046,2.9061,2.9103,2.9127,2.9162,2.9174,2.918,2.9224,2.922,2.9216,2.9204,2.9235,2.9251,2.9258,2.9178,2.9178,2.9178,2.9178,0,0,2.8892,2.8937,2.8945,2.8963,2.8998,2.9022,2.9054,2.9089,2.9107,2.9133,2.9162,2.9205,2.9203,2.9223,2.9232,2.9254,2.929,2.9248,2.9249,2.9257,2.9343,2.9348,2.9355,2.9292,2.9293,2.9294,2.9342,0,2.893,2.8988,2.9002,2.9052,2.9081,2.9088,2.9117,2.9142,2.9157,2.9185,2.9202,2.9234,2.9226,2.9239,2.9261,2.9281,2.9308,2.9277,2.9321,2.9322,2.9315,2.9363,2.9367,2.9411,2.9348,2.9349,2.935,0,2.8982,2.9011,2.9064,2.9097,2.911,2.9135,2.917,2.9195,2.9225,2.9235,2.9258,2.9265,2.9301,2.9287,2.9338,2.9317,2.9335,2.9347,2.935,2.9356,2.9339,2.9373,2.9425,2.9433,2.936,2.9359,2.9358,0,2.9004,2.9056,2.9095,2.911,2.9149,2.9167,2.9184,2.9212,2.9233,2.9263,2.9277,2.931,2.9329,2.9355,2.9372,2.9359,2.9423,2.9409,2.9434,2.9434,2.9448,2.9447,2.9507,2.9456,2.9456,2.9456,2.9456,0,2.9047,2.908,2.9106,2.913,2.9168,2.9184,2.9221,2.9238,2.9264,2.9293,2.93,2.9327,2.9347,2.9378,2.9391,2.9433,2.944,2.9451,2.9454,2.9451,2.945,2.9465,2.9463,2.9458,2.9457,2.9457,2.9457,0,2.9078,2.9097,2.914,2.9174,2.9183,2.921,2.9239,2.9264,2.928,2.9317,2.9327,2.9352,2.9388,2.9408,2.9452,2.9462,2.951,2.951,2.95,2.9502,2.9527,2.9525,2.9599,2.9611,2.9551,2.9551,2.9552,0,2.9105,2.9131,2.9167,2.9188,2.9205,2.9237,2.9259,2.9275,2.9298,2.9334,2.9355,2.9392,2.9423,2.9481,2.9504,2.9539,2.9542,2.9566,2.9548,2.9545,2.9546,2.9545,2.9549,2.957,2.957,2.9571,2.9571,0,2.9151,2.916,2.919,2.9225,2.925,2.9278,2.9306,2.9322,2.9344,2.9369,2.9406,2.943,2.9477,2.9515,2.9552,2.9571,2.9576,2.9577,2.9585,2.9583,2.9577,2.9583,2.9511,2.9575,2.9575,2.9574,2.9574,2.9574,2.9183,2.9207,2.9238,2.9272,2.9295,2.9321,2.9347,2.9367,2.9398,2.9438,2.9446,2.9487,2.9518,2.9569,2.9589,2.9622,2.9617,2.9628,2.9631,2.9634,2.9637,2.957,2.9628,2.9628,2.9628,2.9628,2.9628,0,2.9232,2.9252,2.9284,2.9323,2.9351,2.9352,2.9383,2.9407,2.9442,2.9471,2.9501,2.9546,2.9583,2.9609,2.9647,2.9668,2.9672,2.9678,2.9678,2.9683,2.9637,2.9628,2.9675,2.9675,2.9675,2.9675,2.9675,2.9675,2.9261,2.9303,2.9316,2.937,2.939,2.943,2.9448,2.9473,2.9496,2.9546,2.9577,2.9593,2.9622,2.9662,2.9697,2.9704,2.9719,2.9725,2.9733,2.969,2.9685,2.9681,2.9672,2.9728,2.9728,2.9776,2.9776,2.9777]}]]